Location: Desert Creek Mountains
(38.6110°N, 119.2840°W)
Time: 19:22:26
(UTC+00:00)

Daily predictions for brighter satellites

Satellite Brightness Start Highest point End
(mag) Time Altitude Azimuth Time Altitude Azimuth Time Altitude Azimuth
Cosmos 2227 Rocket 4.4 12:10:12 13° N 12:10:12 13° N 12:10:46 10° N
CENTAUR R/B 4.3 12:12:49 17° NNW 12:18:35 37° NE 12:26:35 10° ESE
USA 234 4.2 12:13:04 10° ENE 12:19:17 44° SE 12:25:28 10° SSW
SL-16 R/B 2.0 12:28:21 82° WNW 12:28:32 84° WSW 12:34:11 10° SSE
SL-8 R/B 3.7 12:32:33 77° E 12:32:33 77° E 12:37:02 10° ESE
ADEOS 3.7 12:27:10 10° NNE 12:32:24 74° ESE 12:37:37 10° S
Cosmos 1745 Rocket 3.9 12:29:32 10° S 12:35:47 88° W 12:42:08 10° N
USA 238 DEB 4.3 12:36:35 21° NNW 12:41:36 58° NE 12:49:01 10° SE
USA 238 4.4 12:36:39 21° NNW 12:41:42 57° NE 12:49:06 10° SE
Cosmos 2151 3.3 12:38:20 10° S 12:42:28 62° E 12:46:37 10° NNE
SL-08 ROCKET BODY 4.3 12:39:30 10° SSW 12:45:27 61° W 12:51:33 10° N
ERS-2 2.4 12:42:13 10° SSE 12:45:29 64° ESE 12:45:29 64° ESE
SL-4 R/B 2.8 12:49:34 37° NNE 12:49:34 37° NNE 12:52:11 10° NE
OAO 3 Rocket 3.4 12:48:32 51° SSW 12:49:02 54° S 12:53:38 10° ESE
Lacrosse 4 Rocket 4.3 12:47:20 10° NNE 12:49:03 12° NE 12:50:47 10° ENE
BREEZE-M DEB (TANK) 4.3 12:47:37 15° S 12:49:29 27° ESE 12:54:13 10° ENE
Cosmos 1689 Rocket 4.4 12:50:18 10° SE 12:52:37 23° ENE 12:54:09 15° NNE
Cosmos 1777 Rocket 3.8 12:47:50 10° SSW 12:53:01 86° WNW 12:58:16 10° NNE
METEOR-M 4.0 12:51:13 10° N 12:56:34 76° WNW 13:01:53 10° SSW
SJ 16-02 3.1 12:53:01 10° SSE 12:56:57 33° E 13:00:55 10° NE
Lacrosse 5 3.8 12:53:05 10° S 12:57:25 29° ESE 13:01:46 10° ENE
COSMO-SKYMED 1 3.3 12:53:31 10° SSE 12:57:44 53° ENE 13:01:58 10° N
CZ-4B R/B 2.6 12:55:33 10° S 12:57:22 31° S 12:57:22 31° S
Cosmos 1606 2.9 12:57:12 26° N 12:59:15 71° E 13:03:02 10° SSE
Cosmos 1709 Rocket 4.1 12:55:26 10° S 13:01:46 84° E 13:08:11 10° N
BREEZE-M DEB (TANK) 2.6 13:02:39 54° NNE 13:02:39 54° NNE 13:05:23 10° ENE
Meteor 1-31 Rocket 2.6 12:58:29 10° N 13:02:19 67° WNW 13:06:06 10° SSW
Cosmos 389 Rocket 2.3 13:02:33 77° SW 13:02:33 77° SW 13:05:52 10° S
Cosmos 2263 Rocket 2.1 13:00:16 10° SSW 13:05:55 88° WNW 13:11:38 10° NNE
CZ-4B R/B 3.2 13:06:50 10° NNE 13:11:22 80° ESE 13:15:48 10° S
PSLV R/B 4.3 13:13:13 10° SSE 13:17:20 65° ENE 13:21:28 10° N
ALOS 2.9 13:14:21 10° N 13:18:31 33° WNW 13:22:40 10° SW
Cosmos 1441 Rocket 3.1 13:14:53 10° SSW 13:18:39 61° W 13:22:25 10° N
SKYMED 3 4.4 13:17:24 10° S 13:21:45 81° W 13:26:06 10° NNW
Cosmos 1603 3.9 13:17:17 10° NNW 13:22:54 71° ENE 13:28:31 10° SSE
Atlas Centaur 2 4.2 13:22:54 10° SSW 13:26:32 18° SSE 13:29:41 10° ESE
MOS 1 Rocket 4.3 13:26:55 10° SE 13:31:18 47° ENE 13:35:58 10° N
Cosmos 1184 Rocket 2.7 13:29:30 10° S 13:32:46 88° W 13:36:03 10° N
ATLAS 3B R/B 4.3 13:27:29 10° NNW 13:33:21 28° NE 13:39:23 10° E
Cosmos 1943 3.3 13:29:40 10° NNW 13:35:24 79° ENE 13:41:05 10° SSE
ASTRO F (AKARI) 4.1 13:32:57 10° NNE 13:36:02 89° ESE 13:39:07 10° SSW
SJ-12 4.4 13:35:01 10° N 13:38:45 36° WNW 13:42:28 10° SW
SWAS 4.4 13:40:05 12° NNW 13:43:57 64° WSW 13:48:09 10° SSE
NOSS 3-4 (A) 3.3 13:38:56 10° SW 13:44:44 64° NW 13:50:53 10° NNE
NOSS 3-4 (C) 3.3 13:39:02 10° SW 13:44:50 64° NW 13:51:01 10° NNE
Envisat 3.5 13:40:27 10° NNE 13:45:31 65° E 13:50:32 10° S
SKYMED 2 4.0 13:41:42 10° S 13:45:48 42° W 13:49:56 10° NNW
NOSS 3-2 (C) 4.2 13:39:35 10° NW 13:47:25 82° WSW 13:56:07 10° SSE
Meteor 1-4 Rocket 2.4 13:44:54 10° N 13:48:23 85° E 13:51:49 10° S
Cosmos 2084 3.6 13:46:44 10° NNW 13:51:14 81° NE 13:55:44 10° SE
USA 276 3.5 13:50:36 17° W 13:52:08 25° SW 13:54:47 10° SSE
Cosmos 1515 Rocket 4.1 13:49:02 10° N 13:53:29 64° E 13:57:53 10° SSE
H-2A R/B 2.6 13:50:40 10° NNE 13:54:32 71° ESE 13:58:20 10° S
ERBS 3.9 13:55:24 15° WNW 13:56:26 17° NW 13:58:45 10° N
Delta 2 Rocket 4.3 13:53:30 12° W 13:57:27 41° SSW 14:01:21 10° SE
Okean O Rocket 3.1 13:53:17 10° NNE 13:57:30 41° E 14:01:41 10° S
ATLAS CENTAUR R/B 4.1 13:57:25 10° NE 13:57:53 10° NE 13:58:20 10° NE
H-2A R/B 2.9 13:54:58 10° N 13:58:47 51° WNW 14:02:33 10° SSW
USA 234 3.5 13:56:00 10° NE 14:02:18 52° NW 14:08:35 10° WSW
ATLAS 2AS CENTAUR R/B 3.1 13:56:32 10° SW 14:04:24 66° NW 14:12:17 10° NNE
Cosmos 1933 4.2 14:04:14 10° NNW 14:07:47 29° W 14:11:20 10° SSW
Meteor 1-26 Rocket 4.4 14:03:12 10° NNW 14:08:53 55° W 14:14:21 10° S
PAYLOAD B 4.3 14:04:07 10° NNE 14:09:41 87° ESE 14:15:10 10° SSW
CENTAUR R/B 3.4 14:01:35 10° NW 14:09:50 63° WSW 14:18:34 10° SSE
Cosmos 1633 3.8 14:08:13 10° WSW 14:10:49 19° WNW 14:13:26 10° NNW
Cosmos 923 Rocket 4.0 14:06:03 10° NNW 14:11:21 85° WSW 14:16:39 10° SSE
Cosmos 1500 Rocket 3.5 14:10:04 10° S 14:14:23 89° W 14:18:43 10° N
SMAP 3.4 14:09:54 10° NNE 14:14:34 75° ESE 14:19:12 10° S
MOS 1-B 4.4 14:09:01 10° NNE 14:14:51 79° WNW 14:20:38 10° SSW
YAOGAN 6 2.6 14:12:19 10° N 14:15:44 51° WNW 14:19:07 10° SSW
ASTRO E2 4.3 14:12:51 10° WSW 14:16:16 28° S 14:19:42 10° ESE
CZ-4C R/B 1.9 14:11:49 10° SW 14:16:34 82° WNW 14:22:13 10° NNE
RESURS DK-1 2.6 14:13:12 10° SSW 14:17:20 76° ESE 14:21:30 10° NNE
CZ-4B DEB 4.2 14:13:23 10° N 14:18:46 63° WNW 14:24:09 10° SSW
PSLV R/B 4.4 14:16:01 10° N 14:19:36 35° WNW 14:23:05 10° SW
Cosmos 1151 Rocket 3.9 14:17:13 10° NNW 14:20:51 28° W 14:24:29 10° SSW
Cosmos 1844 4.3 14:16:53 10° S 14:22:22 65° ESE 14:27:52 10° NNE
